BEL4PR EBBR-LIMF

Flight info

Callsign BEL4PR
Flight time 1h 9m
Altitude 35000
Route ROUSY DCT GIVOR DCT TIRSO DCT NEMOS DCT ORSUD DCT VEROB
Aircraft A320/M-SDE3FGHIRWY/LB1

Departure

Time 2026-05-07 17:44
Airport Brussels Airport (EBBR)

Arrival

Time 2026-05-07 18:53
Airport Turin Airport (LIMF)
Time Latitude Longitude Altitude Speed Heading
2026-05-07 17:22 50.90347 4.48826 118 ft 0 kts 335°
2026-05-07 17:34 50.90333 4.48836 117 ft 4 kts 338°
2026-05-07 17:35 50.90310 4.48849 119 ft 4 kts 347°
2026-05-07 17:35 50.90285 4.48855 121 ft 4 kts
2026-05-07 17:35 50.90265 4.48845 122 ft 4 kts 56°
2026-05-07 17:35 50.90260 4.48832 121 ft 1 kts 65°
2026-05-07 17:38 50.90279 4.48896 122 ft 16 kts 65°
2026-05-07 17:38 50.90330 4.49072 121 ft 18 kts 65°
2026-05-07 17:38 50.90384 4.49254 120 ft 15 kts 64°
2026-05-07 17:39 50.90429 4.49415 122 ft 17 kts 66°
2026-05-07 17:39 50.90479 4.49583 122 ft 14 kts 51°
2026-05-07 17:39 50.90574 4.49640 124 ft 16 kts 14°
2026-05-07 17:39 50.90679 4.49682 122 ft 15 kts 14°
2026-05-07 17:40 50.90748 4.49710 121 ft 0 kts 14°
2026-05-07 17:41 50.90764 4.49717 124 ft 3 kts 14°
2026-05-07 17:41 50.90784 4.49725 124 ft 3 kts 14°
2026-05-07 17:41 50.90809 4.49735 119 ft 10 kts 14°
2026-05-07 17:41 50.90904 4.49775 119 ft 16 kts 20°
2026-05-07 17:42 50.90998 4.49880 118 ft 18 kts 30°
2026-05-07 17:42 50.91035 4.49908 119 ft 0 kts 24°
2026-05-07 17:42 50.91072 4.49934 120 ft 10 kts 24°
2026-05-07 17:43 50.91136 4.49907 119 ft 11 kts 292°
2026-05-07 17:43 50.91128 4.49850 117 ft 0 kts 246°
2026-05-07 17:43 50.91121 4.49826 116 ft 18 kts 245°
2026-05-07 17:44 50.90954 4.49250 117 ft 93 kts 245°
2026-05-07 17:44 50.90604 4.48031 119 ft 148 kts 245°
2026-05-07 17:44 50.90143 4.46399 451 ft 162 kts 247°
2026-05-07 17:44 50.89679 4.44748 1039 ft 166 kts 246°
2026-05-07 17:45 50.89206 4.43076 1688 ft 167 kts 245°
2026-05-07 17:45 50.88500 4.41681 2259 ft 167 kts 210°
2026-05-07 17:45 50.87385 4.41251 2765 ft 168 kts 172°
2026-05-07 17:45 50.86329 4.41961 3256 ft 168 kts 136°
2026-05-07 17:46 50.85587 4.43485 3538 ft 185 kts 123°
2026-05-07 17:46 50.84820 4.45277 3706 ft 209 kts 123°
2026-05-07 17:46 50.83969 4.47274 3993 ft 229 kts 123°
2026-05-07 17:46 50.83047 4.49422 4490 ft 240 kts 125°
2026-05-07 17:47 50.82019 4.51496 5195 ft 244 kts 129°
2026-05-07 17:47 50.80879 4.53603 5684 ft 261 kts 131°
2026-05-07 17:47 50.79654 4.55787 6392 ft 268 kts 132°
2026-05-07 17:47 50.78394 4.58015 6911 ft 274 kts 132°
2026-05-07 17:48 50.77130 4.60262 7046 ft 274 kts 132°
2026-05-07 17:48 50.75868 4.62517 7076 ft 273 kts 132°
2026-05-07 17:48 50.74600 4.64793 7457 ft 278 kts 132°
2026-05-07 17:48 50.73320 4.67093 8318 ft 279 kts 132°
2026-05-07 17:49 50.72029 4.69415 9098 ft 283 kts 132°
2026-05-07 17:49 50.70716 4.71766 9870 ft 287 kts 132°
2026-05-07 17:49 50.69524 4.74326 10551 ft 293 kts 119°
2026-05-07 17:49 50.68725 4.77360 10901 ft 312 kts 107°
2026-05-07 17:50 50.68114 4.80771 11084 ft 334 kts 106°
2026-05-07 17:50 50.67467 4.84410 11327 ft 353 kts 106°
2026-05-07 17:50 50.66755 4.88096 11877 ft 359 kts 112°
2026-05-07 17:50 50.65634 4.91629 12519 ft 362 kts 123°
2026-05-07 17:51 50.64071 4.94759 13170 ft 365 kts 135°
2026-05-07 17:51 50.62247 4.97569 13830 ft 368 kts 137°
2026-05-07 17:51 50.60409 5.00400 14409 ft 371 kts 137°
2026-05-07 17:51 50.58559 5.03263 14981 ft 375 kts 136°
2026-05-07 17:52 50.56694 5.06158 15545 ft 379 kts 136°
2026-05-07 17:52 50.54812 5.09077 16107 ft 382 kts 136°
2026-05-07 17:52 50.52909 5.12027 16659 ft 386 kts 137°
2026-05-07 17:52 50.50989 5.15000 17203 ft 390 kts 137°
2026-05-07 17:53 50.49047 5.17993 17758 ft 393 kts 137°
2026-05-07 17:53 50.47081 5.21009 18308 ft 397 kts 137°
2026-05-07 17:53 50.45097 5.24048 18795 ft 400 kts 137°
2026-05-07 17:53 50.43093 5.27116 19295 ft 403 kts 137°
2026-05-07 17:54 50.41080 5.30204 19804 ft 406 kts 137°
2026-05-07 17:54 50.39082 5.33267 20299 ft 408 kts 137°
2026-05-07 17:54 50.37040 5.36393 20788 ft 411 kts 137°
2026-05-07 17:54 50.34960 5.39472 21257 ft 413 kts 143°
2026-05-07 17:55 50.32488 5.41729 21704 ft 411 kts 160°
2026-05-07 17:55 50.29792 5.43252 22165 ft 413 kts 163°
2026-05-07 17:55 50.27068 5.44719 22599 ft 415 kts 163°
2026-05-07 17:55 50.24279 5.45899 23024 ft 415 kts 175°
2026-05-07 17:56 50.21397 5.46036 23444 ft 415 kts 182°
2026-05-07 17:56 50.18502 5.45967 23817 ft 417 kts 183°
2026-05-07 17:56 50.15587 5.45886 24162 ft 420 kts 183°
2026-05-07 17:56 50.12660 5.45805 24504 ft 422 kts 183°
2026-05-07 17:57 50.09717 5.45725 24835 ft 424 kts 183°
2026-05-07 17:57 50.07764 5.45673 25053 ft 425 kts 183°
2026-05-07 17:57 50.03795 5.45571 25467 ft 428 kts 183°
2026-05-07 17:57 50.00808 5.45497 25784 ft 430 kts 182°
2026-05-07 17:58 49.97858 5.45898 26080 ft 435 kts 169°
2026-05-07 17:58 49.95013 5.47565 26356 ft 442 kts 152°
2026-05-07 17:58 49.92515 5.50412 26628 ft 447 kts 141°
2026-05-07 17:58 49.90144 5.53541 26905 ft 449 kts 141°
2026-05-07 17:59 49.87918 5.56964 27187 ft 453 kts 128°
2026-05-07 17:59 49.86163 5.61048 27463 ft 456 kts 123°
2026-05-07 17:59 49.84485 5.65237 27731 ft 458 kts 123°
2026-05-07 17:59 49.82806 5.69445 27974 ft 460 kts 123°
2026-05-07 18:00 49.81119 5.73674 28234 ft 462 kts 123°
2026-05-07 18:00 49.79998 5.76485 28385 ft 464 kts 123°
2026-05-07 18:00 49.78299 5.80746 28631 ft 465 kts 123°
2026-05-07 18:00 49.76595 5.85017 28865 ft 467 kts 123°
2026-05-07 18:01 49.74203 5.90557 29159 ft 467 kts 133°
2026-05-07 18:01 49.71812 5.93924 29371 ft 464 kts 148°
2026-05-07 18:01 49.69963 5.95577 29554 ft 462 kts 156°
2026-05-07 18:01 49.67058 5.97690 29852 ft 461 kts 157°
2026-05-07 18:02 49.61225 6.01851 30397 ft 460 kts 157°
2026-05-07 18:02 49.58310 6.03914 30642 ft 460 kts 157°
2026-05-07 18:02 49.55399 6.05974 30883 ft 460 kts 157°
2026-05-07 18:03 49.52531 6.08007 31116 ft 460 kts 157°
2026-05-07 18:03 49.49625 6.10065 31358 ft 459 kts 158°
2026-05-07 18:03 49.46637 6.11777 31601 ft 456 kts 166°
2026-05-07 18:03 49.43547 6.12911 31852 ft 455 kts 170°
2026-05-07 18:04 49.40451 6.13968 32095 ft 454 kts 170°
2026-05-07 18:04 49.37362 6.15022 32351 ft 454 kts 170°
2026-05-07 18:04 49.34282 6.16075 32591 ft 453 kts 170°
2026-05-07 18:04 49.31203 6.17126 32845 ft 453 kts 170°
2026-05-07 18:05 49.28129 6.18176 33099 ft 452 kts 170°
2026-05-07 18:05 49.25062 6.19226 33359 ft 452 kts 170°
2026-05-07 18:05 49.21996 6.20274 33608 ft 451 kts 170°
2026-05-07 18:05 49.18971 6.21308 33866 ft 451 kts 170°
2026-05-07 18:06 49.15909 6.22350 34104 ft 451 kts 170°
2026-05-07 18:06 49.12840 6.23385 34287 ft 451 kts 170°
2026-05-07 18:06 49.09772 6.24417 34498 ft 450 kts 170°
2026-05-07 18:06 49.06714 6.25445 34711 ft 450 kts 170°
2026-05-07 18:07 49.03649 6.26476 34910 ft 450 kts 170°
2026-05-07 18:07 49.00590 6.27506 35032 ft 450 kts 170°
2026-05-07 18:07 48.97530 6.28536 35059 ft 451 kts 170°
2026-05-07 18:08 48.91403 6.30601 35056 ft 451 kts 170°
2026-05-07 18:08 48.85274 6.32661 35055 ft 451 kts 171°
2026-05-07 18:09 48.79148 6.34705 35055 ft 451 kts 171°
2026-05-07 18:09 48.73019 6.36747 35058 ft 451 kts 171°
2026-05-07 18:10 48.66926 6.38788 35055 ft 451 kts 171°
2026-05-07 18:10 48.60794 6.40831 35055 ft 451 kts 171°
2026-05-07 18:11 48.54660 6.42866 35060 ft 451 kts 171°
2026-05-07 18:11 48.48533 6.44894 35059 ft 451 kts 171°
2026-05-07 18:12 48.42397 6.46922 35050 ft 451 kts 171°
2026-05-07 18:12 48.36263 6.48946 35044 ft 451 kts 171°
2026-05-07 18:13 48.30169 6.50957 35042 ft 451 kts 171°
2026-05-07 18:13 48.24028 6.52970 35031 ft 451 kts 171°
2026-05-07 18:14 48.17880 6.54979 35050 ft 451 kts 171°
2026-05-07 18:14 48.11733 6.56989 35047 ft 451 kts 171°
2026-05-07 18:15 48.05592 6.58980 35045 ft 451 kts 171°
2026-05-07 18:15 47.99489 6.60964 35051 ft 451 kts 171°
2026-05-07 18:16 47.93354 6.62965 35055 ft 451 kts 171°
2026-05-07 18:16 47.87222 6.64953 35050 ft 451 kts 171°
2026-05-07 18:17 47.81092 6.66930 35031 ft 451 kts 171°
2026-05-07 18:17 47.74934 6.68739 35038 ft 449 kts 173°
2026-05-07 18:18 47.68803 6.70307 35032 ft 449 kts 174°
2026-05-07 18:18 47.62649 6.71875 35029 ft 449 kts 174°
2026-05-07 18:19 47.56493 6.73510 35016 ft 449 kts 174°
2026-05-07 18:19 47.50330 6.75152 35021 ft 449 kts 174°
2026-05-07 18:20 47.44160 6.76793 35020 ft 450 kts 174°
2026-05-07 18:20 47.38040 6.78405 35005 ft 450 kts 174°
2026-05-07 18:21 47.31878 6.80027 35022 ft 449 kts 174°
2026-05-07 18:21 47.25721 6.81654 35030 ft 449 kts 174°
2026-05-07 18:22 47.19563 6.83274 35037 ft 449 kts 174°
2026-05-07 18:22 47.13404 6.84885 35032 ft 449 kts 174°
2026-05-07 18:23 47.07245 6.86478 35020 ft 449 kts 174°
2026-05-07 18:23 47.01092 6.88076 35025 ft 449 kts 174°
2026-05-07 18:24 46.94941 6.89678 35016 ft 449 kts 175°
2026-05-07 18:24 46.88794 6.91301 35027 ft 449 kts 174°
2026-05-07 18:25 46.82667 6.93081 35027 ft 449 kts 173°
2026-05-07 18:25 46.76546 6.94928 35028 ft 449 kts 173°
2026-05-07 18:26 46.70470 6.96737 35018 ft 448 kts 174°
2026-05-07 18:26 46.64352 6.98505 35028 ft 448 kts 174°
2026-05-07 18:27 46.58241 7.00259 35029 ft 447 kts 174°
2026-05-07 18:27 46.52137 7.02029 35029 ft 447 kts 174°
2026-05-07 18:28 46.46036 7.03797 35020 ft 446 kts 174°
2026-05-07 18:28 46.42980 7.04678 34833 ft 447 kts 174°
2026-05-07 18:28 46.39967 7.05543 34581 ft 447 kts 174°
2026-05-07 18:28 46.36915 7.06420 34338 ft 447 kts 174°
2026-05-07 18:29 46.33858 7.07298 34083 ft 446 kts 174°
2026-05-07 18:29 46.30805 7.08177 33824 ft 447 kts 174°
2026-05-07 18:29 46.27756 7.09050 33552 ft 447 kts 174°
2026-05-07 18:29 46.24700 7.09924 33268 ft 448 kts 174°
2026-05-07 18:30 46.21637 7.10801 32995 ft 448 kts 174°
2026-05-07 18:30 46.18578 7.11676 32724 ft 448 kts 174°
2026-05-07 18:30 46.15507 7.12555 32455 ft 448 kts 174°
2026-05-07 18:30 46.12448 7.13432 32174 ft 449 kts 173°
2026-05-07 18:31 46.09384 7.14308 31601 ft 449 kts 173°
2026-05-07 18:31 46.06334 7.15175 30547 ft 455 kts 173°
2026-05-07 18:31 46.03216 7.16059 29460 ft 459 kts 173°
2026-05-07 18:31 46.00075 7.16949 28565 ft 457 kts 173°
2026-05-07 18:32 45.96991 7.17826 28000 ft 447 kts 173°
2026-05-07 18:32 45.93959 7.18699 27312 ft 442 kts 172°
2026-05-07 18:32 45.90965 7.19617 26662 ft 438 kts 171°
2026-05-07 18:32 45.88002 7.20563 26025 ft 434 kts 171°
2026-05-07 18:33 45.85063 7.21518 25386 ft 430 kts 171°
2026-05-07 18:33 45.82155 7.22463 24751 ft 427 kts 171°
2026-05-07 18:33 45.79264 7.23396 24132 ft 423 kts 170°
2026-05-07 18:33 45.76394 7.24310 23510 ft 420 kts 170°
2026-05-07 18:34 45.73587 7.25198 22839 ft 417 kts 170°
2026-05-07 18:34 45.70778 7.26084 22315 ft 411 kts 170°
2026-05-07 18:34 45.68001 7.26958 21836 ft 407 kts 170°
2026-05-07 18:34 45.65245 7.27819 21323 ft 403 kts 170°
2026-05-07 18:35 45.62513 7.28671 20826 ft 399 kts 170°
2026-05-07 18:35 45.59805 7.29517 20341 ft 395 kts 170°
2026-05-07 18:35 45.57135 7.30353 19874 ft 391 kts 170°
2026-05-07 18:35 45.54486 7.31183 19420 ft 387 kts 170°
2026-05-07 18:36 45.51863 7.32004 18964 ft 384 kts 169°
2026-05-07 18:36 45.49254 7.32819 18501 ft 382 kts 169°
2026-05-07 18:36 45.46661 7.33628 18005 ft 381 kts 169°
2026-05-07 18:36 45.44108 7.34427 17524 ft 378 kts 169°
2026-05-07 18:37 45.41547 7.35227 17049 ft 375 kts 170°
2026-05-07 18:37 45.38997 7.36021 16562 ft 373 kts 169°
2026-05-07 18:37 45.36460 7.36812 16083 ft 374 kts 169°
2026-05-07 18:37 45.33923 7.37600 15646 ft 373 kts 169°
2026-05-07 18:38 45.31434 7.38621 15227 ft 371 kts 159°
2026-05-07 18:38 45.29168 7.40326 14811 ft 368 kts 147°
2026-05-07 18:38 45.27249 7.42619 14397 ft 354 kts 134°
2026-05-07 18:38 45.25640 7.45172 13971 ft 339 kts 133°
2026-05-07 18:39 45.24078 7.47581 13626 ft 322 kts 139°
2026-05-07 18:39 45.22298 7.49369 13359 ft 308 kts 155°
2026-05-07 18:39 45.20308 7.50402 13056 ft 302 kts 169°
2026-05-07 18:39 45.18259 7.50689 12794 ft 298 kts 184°
2026-05-07 18:40 45.16190 7.50560 12533 ft 297 kts 184°
2026-05-07 18:40 45.14088 7.50427 11803 ft 305 kts 184°
2026-05-07 18:40 45.11965 7.50298 11070 ft 305 kts 183°
2026-05-07 18:40 45.09848 7.50174 10352 ft 304 kts 183°
2026-05-07 18:41 45.07733 7.50052 9550 ft 305 kts 182°
2026-05-07 18:41 45.05603 7.49929 8699 ft 307 kts 182°
2026-05-07 18:41 45.03497 7.49806 7837 ft 307 kts 182°
2026-05-07 18:41 45.01361 7.49680 6994 ft 307 kts 182°
2026-05-07 18:42 44.99224 7.49549 6121 ft 307 kts 182°
2026-05-07 18:42 44.97091 7.49418 5252 ft 306 kts 182°
2026-05-07 18:42 44.95012 7.49289 4884 ft 288 kts 182°
2026-05-07 18:42 44.93096 7.49171 4751 ft 263 kts 182°
2026-05-07 18:43 44.91340 7.49060 4618 ft 243 kts 182°
2026-05-07 18:43 44.89671 7.48955 4495 ft 236 kts 181°
2026-05-07 18:43 44.88067 7.48855 4365 ft 226 kts 181°
2026-05-07 18:43 44.86550 7.48760 4238 ft 217 kts 181°
2026-05-07 18:44 44.85070 7.48671 4112 ft 210 kts 181°
2026-05-07 18:44 44.83618 7.48684 3987 ft 207 kts 167°
2026-05-07 18:44 44.82329 7.49501 3868 ft 204 kts 139°
2026-05-07 18:44 44.81472 7.51062 3739 ft 204 kts 112°
2026-05-07 18:45 44.81209 7.53003 3620 ft 204 kts 92°
2026-05-07 18:45 44.81148 7.54998 3497 ft 204 kts 92°
2026-05-07 18:45 44.81083 7.56996 3377 ft 204 kts 90°
2026-05-07 18:45 44.81297 7.58954 3257 ft 203 kts 70°
2026-05-07 18:46 44.81981 7.60679 3211 ft 204 kts 50°
2026-05-07 18:46 44.83053 7.61979 3209 ft 205 kts 30°
2026-05-07 18:46 44.84390 7.62672 3210 ft 206 kts
2026-05-07 18:46 44.85821 7.62805 3212 ft 207 kts
2026-05-07 18:47 44.87250 7.62892 3372 ft 202 kts
2026-05-07 18:47 44.88669 7.62980 3913 ft 209 kts
2026-05-07 18:47 44.90129 7.63071 4004 ft 209 kts
2026-05-07 18:47 44.91579 7.63162 4018 ft 207 kts
2026-05-07 18:48 44.92532 7.63222 4010 ft 207 kts
2026-05-07 18:48 44.93975 7.63313 4004 ft 208 kts
2026-05-07 18:48 44.95427 7.63405 4019 ft 209 kts
2026-05-07 18:48 44.96880 7.63496 4019 ft 209 kts
2026-05-07 18:49 44.98333 7.63587 4019 ft 208 kts
2026-05-07 18:49 44.99781 7.63679 4019 ft 208 kts
2026-05-07 18:49 45.01227 7.63770 4020 ft 208 kts
2026-05-07 18:49 45.02674 7.63861 4000 ft 209 kts
2026-05-07 18:50 45.04128 7.63953 3807 ft 208 kts
2026-05-07 18:50 45.05549 7.64043 3562 ft 207 kts
2026-05-07 18:50 45.06979 7.64133 3334 ft 203 kts
2026-05-07 18:50 45.08373 7.64221 3033 ft 198 kts
2026-05-07 18:51 45.09729 7.64307 2767 ft 191 kts
2026-05-07 18:51 45.11013 7.64388 2519 ft 179 kts
2026-05-07 18:51 45.12209 7.64464 2317 ft 162 kts
2026-05-07 18:51 45.13300 7.64533 2092 ft 152 kts
2026-05-07 18:52 45.14345 7.64599 1866 ft 148 kts
2026-05-07 18:52 45.15370 7.64664 1672 ft 146 kts
2026-05-07 18:52 45.16371 7.64728 1469 ft 145 kts
2026-05-07 18:52 45.17374 7.64792 1289 ft 143 kts
2026-05-07 18:53 45.18373 7.64861 1108 ft 144 kts
2026-05-07 18:53 45.19361 7.64914 972 ft 138 kts
2026-05-07 18:53 45.20196 7.64970 980 ft 103 kts
2026-05-07 18:53 45.20775 7.65010 994 ft 41 kts
2026-05-07 18:54 45.20867 7.64938 996 ft 12 kts 305°
2026-05-07 18:54 45.20877 7.64865 996 ft 0 kts 269°
2026-05-07 18:55 45.20877 7.64858 996 ft 5 kts 269°
2026-05-07 18:55 45.20850 7.64762 997 ft 12 kts 213°
2026-05-07 18:56 45.20777 7.64740 995 ft 10 kts 184°
2026-05-07 18:56 45.20713 7.64736 995 ft 9 kts 181°
2026-05-07 18:56 45.20654 7.64734 1000 ft 9 kts 181°
2026-05-07 18:56 45.20589 7.64731 992 ft 10 kts 184°
2026-05-07 18:57 45.20517 7.64725 991 ft 7 kts 182°
2026-05-07 18:57 45.20469 7.64722 990 ft 7 kts 182°
2026-05-07 18:57 45.20414 7.64719 989 ft 10 kts 182°
2026-05-07 18:57 45.20299 7.64714 984 ft 23 kts 181°
2026-05-07 18:58 45.20132 7.64701 975 ft 20 kts 183°
2026-05-07 18:58 45.20020 7.64693 977 ft 16 kts 182°
2026-05-07 18:58 45.19906 7.64686 968 ft 18 kts 182°
2026-05-07 18:58 45.19779 7.64686 966 ft 15 kts 172°
2026-05-07 18:59 45.19726 7.64679 966 ft 5 kts 242°
2026-05-07 18:59 45.19715 7.64632 966 ft 5 kts 255°
2026-05-07 18:59 45.19703 7.64568 966 ft 8 kts 255°
2026-05-07 18:59 45.19663 7.64541 963 ft 7 kts 183°
2026-05-07 19:00 45.19608 7.64538 966 ft 1 kts 182°
2026-05-07 19:00 45.19588 7.64537 966 ft 4 kts 178°
2026-05-07 19:00 45.19577 7.64558 964 ft 4 kts 109°
2026-05-07 19:00 45.19575 7.64592 966 ft 0 kts 91°
2026-05-07 19:01 45.19575 7.64601 966 ft 0 kts 92°